Location: Joffre
(52.3362°N, 113.5373°W)
Time: 11:41:32
(UTC+00:00)

Envisat - Pass Details

Date: 28 November 2021
Orbit: 764 x 766 km, 98.2° (Epoch: 23 January)

Event Time Altitude Azimuth Distance (km) Brightness Sun altitude
Rises 10:55:28 0° 31° (NNE) 3,247 6.8 -38.9°
Reaches altitude 10° 10:59:54 10° 67° (ENE) 2,312 6.2 -38.3°
Maximum altitude 11:01:12 11° 82° (E) 2,248 6.1 -38.1°
Drops below altitude 10° 11:02:29 10° 97° (E) 2,307 6.1 -37.9°
Sets 11:06:53 0° 134° (SE) 3,225 6.6 -37.3°
